User: anonymous   Login
Location: Benque
(43.2594°N, 0.9178°E)
Time: 15:18:29
(UTC+00:00)
Language:

Envisat - Orbit

View from above orbital plane
View from above orbital plane
View from above satellite
View from above satellite

Ground track
Ground track

The orbit data is extracted from the following two-line orbital elements,

1 27386U 02009A   20095.30860035  .00000023  00000-0  21067-4 0  9993
2 27386  98.1391 106.2478 0001412  91.8796 278.6823 14.37976136947963
Epoch (UTC): 04 April 2020 07:24:23
Eccentricity: 0.0001412
inclination: 98.1391°
perigee height: 764 km
apogee height: 766 km
right ascension of ascending node: 106.2478°
argument of perigee: 91.8796°
revolutions per day: 14.37976136
mean anomaly at epoch: 278.6823°
orbit number at epoch: 94796

The dashed part of the orbit path shows where the satellite is in the earth's shadow,  

DLR